Regional Weather Roundup
Issued by NWS Sioux Falls, SD

Home | Current Version | Previous Version | Text Only | Print | Product List | Glossary On
Versions: 1 2 3 4 5 6 7 8 9 10 11 12 13 14 15 16 17 18 19 20 21 22 23 24 25 26 27 28 29 30 31 32 33 34 35 36 37 38 39 40 41 42 43 44 45 46 47 48 49 50
000
ASUS43 KFSD 020910
RWRFSD

WEATHER ROUNDUP FOR SE SOUTH DAKOTA/SW MINNESOTA/NW IOWA
NATIONAL WEATHER SERVICE SIOUX FALLS SD
400 AM CDT TUE SEP 02 2014

NOTE: "FAIR" INDICATES FEW OR NO CLOUDS BELOW 12,000 FEET WITH NO
SIGNIFICANT WEATHER AND OR OBSTRUCTIONS TO VISIBILITY.


SDZ038>040-050-052>070-021000-
SOUTHEAST SOUTH DAKOTA

CITY           SKY/WX    TMP DP  RH WIND       PRES   REMARKS
CHAMBERLAIN    CLEAR     54  52  94 W6        29.94R
HURON          CLEAR     53  51  93 CALM      29.91R
MADISON        FAIR      57  57 100 W10       29.92R
MITCHELL       CLEAR     59  56  89 SW8       29.92R
SIOUX FALLS    MOCLDY    58  55  90 W3        29.92R
WINNER         FAIR      54  50  86 SW7       29.96S
YANKTON        CLEAR     57  55  94 W9        29.94R
$$

MNZ071-072-080-081-089-090-097-098-021000-
SOUTHWEST MINNESOTA

CITY           SKY/WX    TMP DP  RH WIND       PRES   REMARKS
FAIRMONT       CLOUDY    63  54  72 W10       29.90R
JACKSON        CLOUDY    61  54  77 W6        29.93R
LUVERNE        CLOUDY    57  54  88 CALM      29.93R
MARSHALL       CLOUDY    61  52  72 W10       29.87R
MONTEVIDEO     CLOUDY    59  54  82 NW5       29.87R
PIPESTONE      MOCLDY    61  54  77 NW6       29.91R
REDWOOD FALLS  CLOUDY    62  55  77 W7        29.87R
TRACY          CLOUDY    63  55  75 W5        29.89R
WINDOM         RAIN      61  55  82 S7        29.92R
WORTHINGTON    CLOUDY    59  55  88 W8        29.94R
$$

IAZ001>003-012>014-020>022-031-032-NEZ013-014-SDZ071-021000-
NORTHWEST IOWA

CITY           SKY/WX    TMP DP  RH WIND       PRES   REMARKS
CHEROKEE       MOCLDY    58  57  97 CALM      29.92R
DENISON        FOG       57  57 100 SW3       29.91R VSB 1
ESTHERVILLE    CLOUDY    60  57  89 W6        29.91R
LE MARS        PTCLDY    57  55  94 S5        29.92F
ORANGE CITY    MOCLDY    59  55  88 NW5       29.92S
SHELDON        CLOUDY    57  57 100 SW5       29.91S
SIOUX CITY     CLEAR     57  55  93 VRB3        N/A
SPENCER        LGT RAIN  61  57  87 W7        29.92R
STORM LAKE     MOCLDY    57  57 100 N3        29.91R
$$

ABBREVIATIONS USED IN REMARKS
   TC - TEMPERATURE IN CELSIUS
  WCI - WIND CHILL INDEX
   HX - HEAT INDEX
  VSB - VISIBILITY




USA.gov is the U.S. government's official web portal to all federal, state and local government web resources and services.